Home   Weather   Rochester   Past weeks

Flag for USA Past Weather in Rochester, New York, USA — Yesterday and Last 2 Weeks

45 °F

Partly cloudy.

Feels Like: 38 °F
Forecast: 45 / 57 °F
Wind: 16 mph from West

Location: Greater Rochester International Airport

Current Time: Oct 22, 2016 at 11:24:03 PM

Latest Report: Oct 22, 2016 at 10:54 PM

Visibility: 10 mi

Pressure: 29.77 "Hg

Humidity: 65%

Dew Point: 34 °F

Location of RochesterLocation

Past Weather in Rochester — Graph


Rochester Temperature Yesterday

Maximum temperature yesterday: 54 °F (at 12:54 AM)
Minimum temperature yesterday: 10 °F (at 7:54 AM)
Average temperature yesterday: 48 °F

High & Low Weather Summary for the Past Weeks

High79 °F (Oct 18, 2:54 PM)100% (Oct 17, 4:54 AM)30.47 "Hg (Oct 17, 4:54 AM)
Low10 °F (Oct 21, 7:54 AM)25% (Oct 11, 2:54 PM)29.62 "Hg (Oct 18, 2:54 PM)
Average57 °F74%30.08 "Hg
* Reported Oct 7 9:54 PM — Oct 22 9:54 PM, Rochester, Weather by CustomWeather, © 2016

Note: Actual official high and low records may vary slightly from our data, if they occured in-between our weather recording intervals... More about our weather records


Rochester Weather History for the Previous 24 Hours

Scroll right to see more
Time TempWeatherWind HumidityBarometerVisibility
9:54 PM
Sat, Oct 22
46 °FMostly cloudy.16 mph61%29.76 "Hg10 mi
8:54 PM45 °FOvercast.20 mph60%29.75 "Hg10 mi
7:54 PM46 °FOvercast.20 mph61%29.75 "Hg10 mi
6:54 PM46 °FMostly cloudy.18 mph61%29.72 "Hg10 mi
5:54 PM46 °FPartly sunny.20 mph63%29.70 "Hg10 mi
4:54 PM47 °FOvercast.20 mph61%29.70 "Hg10 mi
3:54 PM46 °FMostly cloudy.15 mph68%29.70 "Hg10 mi
2:54 PM45 °FOvercast.18 mph71%29.70 "Hg10 mi
1:54 PM44 °FOvercast.20 mph76%29.69 "Hg10 mi
12:54 PM44 °FOvercast.14 mph73%29.71 "Hg10 mi
11:54 AM43 °FOvercast.14 mph79%29.72 "Hg10 mi
10:54 AM42 °FOvercast.15 mph85%29.72 "Hg10 mi
9:54 AM42 °FMostly cloudy.15 mph85%29.72 "Hg10 mi
8:54 AM42 °FMore clouds than sun.12 mph92%29.72 "Hg10 mi
7:54 AM42 °FLight rain. Overcast.13 mph92%29.72 "Hg10 mi
6:54 AM43 °FLight rain. Overcast.14 mph93%29.73 "Hg7 mi
6:03 AM44 °FOvercast.12 mph89%29.72 "Hg10 mi
4:54 AM44 °FOvercast.10 mph89%29.74 "Hg10 mi
3:54 AM44 °FLight rain. Overcast.10 mph89%29.76 "Hg9 mi
2:54 AM45 °FOvercast.9 mph90%29.76 "Hg10 mi
1:54 AM45 °FOvercast.13 mph93%29.77 "Hg10 mi
12:54 AM45 °FLight rain. Overcast.14 mph93%29.78 "Hg8 mi
11:54 PM
Fri, Oct 21
46 °FLight rain. Overcast.9 mph93%29.79 "Hg10 mi
Weather by CustomWeather, © 2016

See weather overviewHow to use our weather pages